GALAXY 16 (G-16) (29236 NORAD) Tracking and Keplerian Element Data

This shows tracking and keplerian element data for the satellite.

Feedback or suggestion? Click here.




ElementValue
Catalog29236
NameGALAXY 16 (G-16)
Epoch Orbit6826
Epoch Day34.66393889
Epoch Year2025
RAAN257.0863
Inclination0.0627
Eccentricity0.0002873
Argument of Perigee59.6971
Mean Anonmoly317.2843
Mean Motion1.002742
Decay Rate-1.23E-06
L11 29236U 06023A 25034.66393889 -.00000123 00000+0 00000+0 0 9994
L22 29236 0.0627 257.0863 0002873 59.6971 317.2843 1.00274200 68263



Live tracking and technical data element details for GALAXY 16 (G-16) (NORAD 29236). GALAXY 16 (G-16) can be tracked NOW for your location showing map with azimuth and elevation plus other details from your city location.







IsCatalogInMostPopularTable: catalog: 29236, numindb: 381
Update: records affected: 1



GetName: 29236 GALAXY 16 (G-16)

Hit Count: updated at: Sat, 17 May 2025 09:34:17 GMT